Time,TemperatureF,DewpointF,PressureIn,WindDirection,WindDirectionDegrees,WindSpeedMPH,WindSpeedGustMPH,Humidity,HourlyPrecipIn,Conditions,Clouds,dailyrainin,SoftwareType,DateUTC
2013-05-18 00:01:00,80.7,72.0,29.70,SSW,208,0.0,0.0,75,0.00,,---,0.00,VWS V14.01,2013-05-18 05:01:00,
2013-05-18 00:06:00,80.5,71.8,29.70,SSE,161,0.0,4.0,75,0.00,,---,0.00,VWS V14.01,2013-05-18 05:06:00,
2013-05-18 00:11:00,80.4,71.8,29.70,South,177,0.0,1.0,75,0.00,,---,0.00,VWS V14.01,2013-05-18 05:11:00,
2013-05-18 00:16:00,80.3,72.1,29.70,South,191,0.0,0.0,76,0.00,,---,0.00,VWS V14.01,2013-05-18 05:16:00,
2013-05-18 00:21:00,80.2,72.3,29.70,South,178,0.0,5.0,77,0.00,,---,0.00,VWS V14.01,2013-05-18 05:21:00,
2013-05-18 00:26:00,80.1,72.2,29.69,South,173,0.0,14.0,77,0.00,,---,0.00,VWS V14.01,2013-05-18 05:26:00,
2013-05-18 00:31:00,79.9,72.1,29.69,SSW,196,2.0,2.0,77,0.00,,---,0.00,VWS V14.01,2013-05-18 05:31:00,
2013-05-18 00:36:00,79.7,71.9,29.69,WSW,238,0.0,3.0,77,0.00,,---,0.00,VWS V14.01,2013-05-18 05:36:00,
2013-05-18 00:41:00,79.5,72.0,29.70,SW,228,7.0,7.0,78,0.00,,---,0.00,VWS V14.01,2013-05-18 05:41:00,
2013-05-18 00:46:00,79.4,71.9,29.70,South,169,2.0,4.0,78,0.00,,---,0.00,VWS V14.01,2013-05-18 05:46:00,
2013-05-18 00:51:00,79.2,71.8,29.70,ESE,111,0.0,0.0,78,0.00,,---,0.00,VWS V14.01,2013-05-18 05:51:00,
2013-05-18 00:56:00,79.1,71.7,29.70,SSW,209,0.0,0.0,78,0.00,,---,0.00,VWS V14.01,2013-05-18 05:56:00,
2013-05-18 01:01:00,78.9,71.8,29.70,SSE,160,0.0,0.0,79,0.00,,---,0.00,VWS V14.01,2013-05-18 06:01:00,
2013-05-18 01:06:00,78.8,71.7,29.70,SSE,168,0.0,0.0,79,0.00,,---,0.00,VWS V14.01,2013-05-18 06:06:00,
2013-05-18 01:11:00,78.7,71.6,29.70,South,175,0.0,0.0,79,0.00,,---,0.00,VWS V14.01,2013-05-18 06:11:00,
2013-05-18 01:16:00,78.5,71.4,29.69,South,169,0.0,0.0,79,0.00,,---,0.00,VWS V14.01,2013-05-18 06:16:00,
2013-05-18 01:21:00,78.3,71.3,29.69,SSW,200,4.0,4.0,79,0.00,,---,0.00,VWS V14.01,2013-05-18 06:21:00,
2013-05-18 01:26:00,78.3,71.3,29.69,SW,218,0.0,6.0,79,0.00,,---,0.00,VWS V14.01,2013-05-18 06:26:00,
2013-05-18 01:31:00,78.2,71.2,29.69,SSE,167,0.0,0.0,79,0.00,,---,0.00,VWS V14.01,2013-05-18 06:31:00,
2013-05-18 01:36:00,78.1,71.1,29.69,South,176,0.0,6.0,79,0.00,,---,0.00,VWS V14.01,2013-05-18 06:36:00,
2013-05-18 01:41:00,77.9,70.9,29.69,South,174,0.0,0.0,79,0.00,,---,0.00,VWS V14.01,2013-05-18 06:41:00,
2013-05-18 01:46:00,77.8,71.1,29.68,SSW,209,0.0,11.0,80,0.00,,---,0.00,VWS V14.01,2013-05-18 06:46:00,
2013-05-18 01:51:00,77.7,71.0,29.68,SSE,168,0.0,0.0,80,0.00,,---,0.00,VWS V14.01,2013-05-18 06:51:00,
2013-05-18 01:56:00,77.7,71.0,29.68,SSE,153,2.0,3.0,80,0.00,,---,0.00,VWS V14.01,2013-05-18 06:56:00,
2013-05-18 02:01:00,77.5,70.8,29.68,SSE,167,0.0,2.0,80,0.00,,---,0.00,VWS V14.01,2013-05-18 07:01:00,
2013-05-18 02:06:00,77.3,70.7,29.68,South,171,0.0,3.0,80,0.00,,---,0.00,VWS V14.01,2013-05-18 07:06:00,
2013-05-18 02:11:00,77.1,70.5,29.68,South,186,1.0,4.0,80,0.00,,---,0.00,VWS V14.01,2013-05-18 07:11:00,
2013-05-18 02:16:00,77.0,70.7,29.69,SSW,198,0.0,2.0,81,0.00,,---,0.00,VWS V14.01,2013-05-18 07:16:00,
2013-05-18 02:21:00,76.8,70.5,29.69,South,171,3.0,3.0,81,0.00,,---,0.00,VWS V14.01,2013-05-18 07:21:00,
2013-05-18 02:26:00,76.6,70.3,29.69,SSE,160,5.0,5.0,81,0.00,,---,0.00,VWS V14.01,2013-05-18 07:26:00,
2013-05-18 02:31:00,76.5,70.2,29.69,SSW,195,0.0,0.0,81,0.00,,---,0.00,VWS V14.01,2013-05-18 07:31:00,
2013-05-18 02:36:00,76.4,70.1,29.69,SSW,200,7.0,7.0,81,0.00,,---,0.00,VWS V14.01,2013-05-18 07:36:00,
2013-05-18 02:41:00,76.2,69.9,29.69,SSW,207,0.0,0.0,81,0.00,,---,0.00,VWS V14.01,2013-05-18 07:41:00,
2013-05-18 02:46:00,76.1,70.2,29.68,South,173,0.0,7.0,82,0.00,,---,0.00,VWS V14.01,2013-05-18 07:46:00,
2013-05-18 02:51:00,75.9,70.0,29.69,SSW,209,2.0,2.0,82,0.00,,---,0.00,VWS V14.01,2013-05-18 07:51:00,
2013-05-18 02:56:00,75.9,70.0,29.69,SW,216,0.0,3.0,82,0.00,,---,0.00,VWS V14.01,2013-05-18 07:56:00,
2013-05-18 03:01:00,75.8,69.9,29.69,SW,215,0.0,0.0,82,0.00,,---,0.00,VWS V14.01,2013-05-18 08:01:00,
2013-05-18 03:06:00,75.7,69.8,29.69,South,176,0.0,3.0,82,0.00,,---,0.00,VWS V14.01,2013-05-18 08:06:00,
2013-05-18 03:11:00,75.5,69.6,29.69,SW,228,5.0,5.0,82,0.00,,---,0.00,VWS V14.01,2013-05-18 08:11:00,
2013-05-18 03:16:00,75.4,69.5,29.69,South,186,0.0,3.0,82,0.00,,---,0.00,VWS V14.01,2013-05-18 08:16:00,
2013-05-18 03:21:00,75.4,69.5,29.69,South,171,0.0,0.0,82,0.00,,---,0.00,VWS V14.01,2013-05-18 08:21:00,
2013-05-18 03:26:00,75.4,69.5,29.69,SSW,210,0.0,0.0,82,0.00,,---,0.00,VWS V14.01,2013-05-18 08:26:00,
2013-05-18 03:31:00,75.3,69.4,29.69,South,171,0.0,0.0,82,0.00,,---,0.00,VWS V14.01,2013-05-18 08:31:00,
2013-05-18 03:36:00,75.2,69.3,29.69,South,174,0.0,0.0,82,0.00,,---,0.00,VWS V14.01,2013-05-18 08:36:00,
2013-05-18 03:41:00,75.1,69.2,29.69,South,171,2.0,2.0,82,0.00,,---,0.00,VWS V14.01,2013-05-18 08:41:00,
2013-05-18 03:46:00,75.0,69.1,29.69,SW,227,0.0,7.0,82,0.00,,---,0.00,VWS V14.01,2013-05-18 08:46:00,
2013-05-18 03:51:00,75.0,69.1,29.69,South,169,0.0,0.0,82,0.00,,---,0.00,VWS V14.01,2013-05-18 08:51:00,
2013-05-18 03:56:00,75.0,69.1,29.69,South,175,0.0,0.0,82,0.00,,---,0.00,VWS V14.01,2013-05-18 08:56:00,
2013-05-18 04:01:00,74.8,68.9,29.69,SSE,168,0.0,0.0,82,0.00,,---,0.00,VWS V14.01,2013-05-18 09:01:00,
2013-05-18 04:06:00,74.7,68.8,29.69,SSW,192,0.0,0.0,82,0.00,,---,0.00,VWS V14.01,2013-05-18 09:06:00,
2013-05-18 04:11:00,74.6,68.8,29.69,South,175,0.0,0.0,82,0.00,,---,0.00,VWS V14.01,2013-05-18 09:11:00,
2013-05-18 04:16:00,74.5,68.7,29.69,SSW,198,0.0,0.0,82,0.00,,---,0.00,VWS V14.01,2013-05-18 09:16:00,
2013-05-18 04:21:00,74.4,68.9,29.69,South,185,0.0,0.0,83,0.00,,---,0.00,VWS V14.01,2013-05-18 09:21:00,
2013-05-18 04:26:00,74.3,68.8,29.69,South,171,0.0,0.0,83,0.00,,---,0.00,VWS V14.01,2013-05-18 09:26:00,
2013-05-18 04:31:00,74.2,68.7,29.69,SSW,199,0.0,0.0,83,0.00,,---,0.00,VWS V14.01,2013-05-18 09:31:00,
2013-05-18 04:36:00,74.1,68.6,29.69,South,175,0.0,0.0,83,0.00,,---,0.00,VWS V14.01,2013-05-18 09:36:00,
2013-05-18 04:41:00,74.0,68.5,29.69,South,180,0.0,1.0,83,0.00,,---,0.00,VWS V14.01,2013-05-18 09:41:00,
2013-05-18 04:46:00,73.8,68.3,29.69,South,178,0.0,0.0,83,0.00,,---,0.00,VWS V14.01,2013-05-18 09:46:00,
2013-05-18 04:51:00,73.8,68.3,29.70,South,170,0.0,0.0,83,0.00,,---,0.00,VWS V14.01,2013-05-18 09:51:00,
2013-05-18 04:56:00,73.6,68.1,29.69,South,173,0.0,0.0,83,0.00,,---,0.00,VWS V14.01,2013-05-18 09:56:00,
2013-05-18 05:01:00,73.5,68.0,29.69,South,184,0.0,0.0,83,0.00,,---,0.00,VWS V14.01,2013-05-18 10:01:00,
2013-05-18 05:06:00,73.4,67.9,29.70,South,186,0.0,0.0,83,0.00,,---,0.00,VWS V14.01,2013-05-18 10:06:00,
2013-05-18 05:11:00,73.4,67.9,29.70,South,179,0.0,0.0,83,0.00,,---,0.00,VWS V14.01,2013-05-18 10:11:00,
2013-05-18 05:16:00,73.4,67.9,29.70,SE,144,0.0,0.0,83,0.00,,---,0.00,VWS V14.01,2013-05-18 10:16:00,
2013-05-18 05:21:00,73.4,67.9,29.70,SSW,194,0.0,0.0,83,0.00,,---,0.00,VWS V14.01,2013-05-18 10:21:00,
2013-05-18 05:26:00,73.3,67.8,29.70,SSW,196,1.0,1.0,83,0.00,,---,0.00,VWS V14.01,2013-05-18 10:26:00,
2013-05-18 05:31:00,73.3,67.5,29.70,SSW,198,0.0,0.0,82,0.00,,---,0.00,VWS V14.01,2013-05-18 10:31:00,
2013-05-18 05:36:00,73.2,67.4,29.70,SSW,201,0.0,2.0,82,0.00,,---,0.00,VWS V14.01,2013-05-18 10:36:00,
2013-05-18 05:41:00,73.2,67.7,29.71,SSW,208,0.0,0.0,83,0.00,,---,0.00,VWS V14.01,2013-05-18 10:41:00,
2013-05-18 05:46:00,73.1,67.3,29.71,South,187,0.0,0.0,82,0.00,,---,0.00,VWS V14.01,2013-05-18 10:46:00,
2013-05-18 05:51:00,73.1,67.3,29.71,South,176,0.0,0.0,82,0.00,,---,0.00,VWS V14.01,2013-05-18 10:51:00,
2013-05-18 05:56:00,73.0,67.2,29.71,South,175,1.0,1.0,82,0.00,,---,0.00,VWS V14.01,2013-05-18 10:56:00,
2013-05-18 06:01:00,73.0,67.2,29.72,South,175,0.0,0.0,82,0.00,,---,0.00,VWS V14.01,2013-05-18 11:01:00,
2013-05-18 06:06:00,72.9,67.1,29.72,South,180,0.0,0.0,82,0.00,,---,0.00,VWS V14.01,2013-05-18 11:06:00,
2013-05-18 06:11:00,72.9,67.1,29.72,South,175,0.0,0.0,82,0.00,,---,0.00,VWS V14.01,2013-05-18 11:11:00,
2013-05-18 06:16:00,72.8,67.0,29.72,SSE,160,0.0,0.0,82,0.00,,---,0.00,VWS V14.01,2013-05-18 11:16:00,
2013-05-18 06:21:00,72.7,66.9,29.72,South,174,0.0,0.0,82,0.00,,---,0.00,VWS V14.01,2013-05-18 11:21:00,
2013-05-18 06:26:00,72.7,66.9,29.72,South,175,0.0,0.0,82,0.00,,---,0.00,VWS V14.01,2013-05-18 11:26:00,
2013-05-18 06:31:00,72.6,66.8,29.73,SSE,165,0.0,0.0,82,0.00,,---,0.00,VWS V14.01,2013-05-18 11:31:00,
2013-05-18 06:36:00,72.6,66.8,29.73,South,190,0.0,0.0,82,0.00,,---,0.00,VWS V14.01,2013-05-18 11:36:00,
2013-05-18 06:41:00,72.6,66.8,29.73,SSE,157,0.0,0.0,82,0.00,,---,0.00,VWS V14.01,2013-05-18 11:41:00,
2013-05-18 06:46:00,72.5,66.7,29.74,South,171,0.0,0.0,82,0.00,,---,0.00,VWS V14.01,2013-05-18 11:46:00,
2013-05-18 06:51:00,72.5,66.7,29.74,SSW,200,0.0,0.0,82,0.00,,---,0.00,VWS V14.01,2013-05-18 11:51:00,
2013-05-18 06:56:00,72.6,66.8,29.74,SSW,197,0.0,0.0,82,0.00,,---,0.00,VWS V14.01,2013-05-18 11:56:00,
2013-05-18 07:01:00,72.6,66.8,29.74,SSW,194,4.0,4.0,82,0.00,,---,0.00,VWS V14.01,2013-05-18 12:01:00,
2013-05-18 07:06:00,72.6,66.8,29.74,SSW,205,0.0,0.0,82,0.00,,---,0.00,VWS V14.01,2013-05-18 12:06:00,
2013-05-18 07:11:00,72.7,66.9,29.74,South,183,0.0,0.0,82,0.00,,---,0.00,VWS V14.01,2013-05-18 12:11:00,
2013-05-18 07:16:00,72.7,66.9,29.74,South,182,0.0,0.0,82,0.00,,---,0.00,VWS V14.01,2013-05-18 12:16:00,
2013-05-18 07:21:00,72.6,66.8,29.75,SW,215,0.0,0.0,82,0.00,,---,0.00,VWS V14.01,2013-05-18 12:21:00,
2013-05-18 07:26:00,72.6,66.8,29.75,SSW,192,0.0,0.0,82,0.00,,---,0.00,VWS V14.01,2013-05-18 12:26:00,
2013-05-18 07:31:00,72.5,66.7,29.75,SW,222,0.0,0.0,82,0.00,,---,0.00,VWS V14.01,2013-05-18 12:31:00,
2013-05-18 07:36:00,72.4,66.9,29.75,SSE,159,3.0,3.0,83,0.00,,---,0.00,VWS V14.01,2013-05-18 12:36:00,
2013-05-18 07:41:00,72.4,66.9,29.76,SSE,148,0.0,0.0,83,0.00,,---,0.00,VWS V14.01,2013-05-18 12:41:00,
2013-05-18 07:46:00,72.4,66.9,29.76,South,184,0.0,0.0,83,0.00,,---,0.00,VWS V14.01,2013-05-18 12:46:00,
2013-05-18 07:51:00,72.4,66.9,29.76,SSE,160,0.0,0.0,83,0.00,,---,0.00,VWS V14.01,2013-05-18 12:51:00,
2013-05-18 07:56:00,72.5,67.1,29.76,SSE,157,0.0,0.0,83,0.00,,---,0.00,VWS V14.01,2013-05-18 12:56:00,
2013-05-18 08:01:00,72.7,67.2,29.76,SSW,196,0.0,0.0,83,0.00,,---,0.00,VWS V14.01,2013-05-18 13:01:00,
2013-05-18 08:06:00,72.8,67.3,29.76,South,186,0.0,0.0,83,0.00,,---,0.00,VWS V14.01,2013-05-18 13:06:00,
2013-05-18 08:11:00,72.8,67.3,29.76,SSW,205,0.0,0.0,83,0.00,,---,0.00,VWS V14.01,2013-05-18 13:11:00,
2013-05-18 08:16:00,73.0,67.5,29.76,SSW,199,5.0,5.0,83,0.00,,---,0.00,VWS V14.01,2013-05-18 13:16:00,
2013-05-18 08:21:00,73.1,67.6,29.76,SSE,165,0.0,1.0,83,0.00,,---,0.00,VWS V14.01,2013-05-18 13:21:00,
2013-05-18 08:26:00,73.2,67.7,29.76,SSW,208,0.0,0.0,83,0.00,,---,0.00,VWS V14.01,2013-05-18 13:26:00,
2013-05-18 08:31:00,73.1,67.6,29.76,SE,146,3.0,3.0,83,0.00,,---,0.00,VWS V14.01,2013-05-18 13:31:00,
2013-05-18 08:36:00,73.3,67.8,29.76,WSW,240,0.0,5.0,83,0.00,,---,0.00,VWS V14.01,2013-05-18 13:36:00,
2013-05-18 08:41:00,73.5,68.0,29.76,South,169,0.0,0.0,83,0.00,,---,0.00,VWS V14.01,2013-05-18 13:41:00,
2013-05-18 08:46:00,73.7,67.9,29.76,South,170,0.0,0.0,82,0.00,,---,0.00,VWS V14.01,2013-05-18 13:46:00,
2013-05-18 08:51:00,73.9,68.1,29.76,SSE,168,0.0,0.0,82,0.00,,---,0.00,VWS V14.01,2013-05-18 13:51:00,
2013-05-18 08:56:00,74.3,68.4,29.76,SSW,193,3.0,5.0,82,0.00,,---,0.00,VWS V14.01,2013-05-18 13:56:00,
2013-05-18 09:01:00,74.5,68.7,29.76,SSE,163,4.0,9.0,82,0.00,,---,0.00,VWS V14.01,2013-05-18 14:01:00,
2013-05-18 09:06:00,74.5,68.3,29.77,South,188,0.0,5.0,81,0.00,,---,0.00,VWS V14.01,2013-05-18 14:06:00,
2013-05-18 09:11:00,74.8,68.6,29.76,SSW,196,11.0,11.0,81,0.00,,---,0.00,VWS V14.01,2013-05-18 14:11:00,
2013-05-18 09:16:00,75.0,68.8,29.77,SSE,167,1.0,1.0,81,0.00,,---,0.00,VWS V14.01,2013-05-18 14:16:00,
2013-05-18 09:21:00,75.2,69.0,29.77,SSE,167,0.0,0.0,81,0.00,,---,0.00,VWS V14.01,2013-05-18 14:21:00,
2013-05-18 09:26:00,75.5,68.9,29.76,South,175,0.0,0.0,80,0.00,,---,0.00,VWS V14.01,2013-05-18 14:26:00,
2013-05-18 09:31:00,75.9,69.3,29.76,SSE,163,3.0,4.0,80,0.00,,---,0.00,VWS V14.01,2013-05-18 14:31:00,
2013-05-18 09:36:00,76.3,69.3,29.76,South,178,0.0,7.0,79,0.00,,---,0.00,VWS V14.01,2013-05-18 14:36:00,
2013-05-18 09:41:00,76.5,69.5,29.76,SW,217,0.0,0.0,79,0.00,,---,0.00,VWS V14.01,2013-05-18 14:41:00,
2013-05-18 09:46:00,76.8,69.8,29.76,WSW,240,0.0,0.0,79,0.00,,---,0.00,VWS V14.01,2013-05-18 14:46:00,
2013-05-18 09:51:00,77.3,69.9,29.76,South,187,1.0,3.0,78,0.00,,---,0.00,VWS V14.01,2013-05-18 14:51:00,
2013-05-18 09:56:00,77.7,70.3,29.76,SSE,161,0.0,0.0,78,0.00,,---,0.00,VWS V14.01,2013-05-18 14:56:00,
2013-05-18 10:01:00,78.0,70.2,29.76,South,169,0.0,0.0,77,0.00,,---,0.00,VWS V14.01,2013-05-18 15:01:00,
2013-05-18 10:06:00,78.4,70.2,29.76,South,171,0.0,0.0,76,0.00,,---,0.00,VWS V14.01,2013-05-18 15:06:00,
2013-05-18 10:11:00,78.9,70.7,29.76,South,188,0.0,0.0,76,0.00,,---,0.00,VWS V14.01,2013-05-18 15:11:00,
2013-05-18 10:16:00,79.4,70.8,29.76,South,181,0.0,0.0,75,0.00,,---,0.00,VWS V14.01,2013-05-18 15:16:00,
2013-05-18 10:21:00,79.8,70.8,29.75,SSW,213,0.0,7.0,74,0.00,,---,0.00,VWS V14.01,2013-05-18 15:21:00,
2013-05-18 10:26:00,80.2,71.2,29.75,SW,224,0.0,0.0,74,0.00,,---,0.00,VWS V14.01,2013-05-18 15:26:00,
2013-05-18 10:31:00,80.7,71.2,29.75,SSW,211,0.0,1.0,73,0.00,,---,0.00,VWS V14.01,2013-05-18 15:31:00,
2013-05-18 10:36:00,80.9,71.4,29.75,SSE,161,0.0,1.0,73,0.00,,---,0.00,VWS V14.01,2013-05-18 15:36:00,
2013-05-18 10:41:00,81.3,71.4,29.75,WSW,237,0.0,4.0,72,0.00,,---,0.00,VWS V14.01,2013-05-18 15:41:00,
2013-05-18 10:46:00,81.7,71.8,29.75,SSW,202,0.0,2.0,72,0.00,,---,0.00,VWS V14.01,2013-05-18 15:46:00,
2013-05-18 10:51:00,82.0,71.7,29.75,SSW,194,0.0,0.0,71,0.00,,---,0.00,VWS V14.01,2013-05-18 15:51:00,
2013-05-18 10:56:00,82.3,72.0,29.75,SSE,154,0.0,11.0,71,0.00,,---,0.00,VWS V14.01,2013-05-18 15:56:00,
2013-05-18 11:01:00,82.6,72.2,29.75,WSW,239,0.0,0.0,71,0.00,,---,0.00,VWS V14.01,2013-05-18 16:01:00,
2013-05-18 11:06:00,82.6,71.8,29.75,South,169,0.0,2.0,70,0.00,,---,0.00,VWS V14.01,2013-05-18 16:06:00,
2013-05-18 11:11:00,82.6,71.8,29.75,SSE,167,5.0,7.0,70,0.00,,---,0.00,VWS V14.01,2013-05-18 16:11:00,
2013-05-18 11:16:00,82.9,71.3,29.75,SSE,168,0.0,0.0,68,0.00,,---,0.00,VWS V14.01,2013-05-18 16:16:00,
2013-05-18 11:20:00,83.1,71.9,29.74,SSW,208,0.0,0.0,69,0.00,,---,0.00,VWS V14.01,2013-05-18 16:20:00,
2013-05-18 11:25:00,83.6,71.9,29.74,SSE,160,0.0,6.0,68,0.00,,---,0.00,VWS V14.01,2013-05-18 16:25:00,
2013-05-18 11:30:00,83.9,72.7,29.74,SSW,199,0.0,0.0,69,0.00,,---,0.00,VWS V14.01,2013-05-18 16:30:00,
2013-05-18 11:35:00,84.4,72.2,29.74,SSE,160,1.0,8.0,67,0.00,,---,0.00,VWS V14.01,2013-05-18 16:35:00,
2013-05-18 11:40:00,84.7,72.1,29.74,SSW,201,0.0,2.0,66,0.00,,---,0.00,VWS V14.01,2013-05-18 16:40:00,
2013-05-18 11:45:00,84.6,72.4,29.74,South,174,1.0,2.0,67,0.00,,---,0.00,VWS V14.01,2013-05-18 16:45:00,
2013-05-18 11:50:00,84.8,72.6,29.74,South,183,0.0,4.0,67,0.00,,---,0.00,VWS V14.01,2013-05-18 16:50:00,
2013-05-18 11:55:00,85.3,73.1,29.74,South,180,0.0,8.0,67,0.00,,---,0.00,VWS V14.01,2013-05-18 16:55:00,
2013-05-18 12:00:00,85.6,72.5,29.74,South,174,1.0,11.0,65,0.00,,---,0.00,VWS V14.01,2013-05-18 17:00:00,
2013-05-18 12:05:00,85.5,71.9,29.74,South,184,0.0,4.0,64,0.00,,---,0.00,VWS V14.01,2013-05-18 17:05:00,
2013-05-18 12:10:00,85.5,72.4,29.74,SW,219,0.0,4.0,65,0.00,,---,0.00,VWS V14.01,2013-05-18 17:10:00,
2013-05-18 12:15:00,85.9,72.8,29.74,South,171,0.0,0.0,65,0.00,,---,0.00,VWS V14.01,2013-05-18 17:15:00,
2013-05-18 12:20:00,86.1,72.0,29.74,South,186,0.0,5.0,63,0.00,,---,0.00,VWS V14.01,2013-05-18 17:20:00,
2013-05-18 12:25:00,85.6,71.6,29.73,SE,146,0.0,2.0,63,0.00,,---,0.00,VWS V14.01,2013-05-18 17:25:00,
2013-05-18 12:30:00,85.2,72.1,29.73,South,173,0.0,6.0,65,0.00,,---,0.00,VWS V14.01,2013-05-18 17:30:00,
2013-05-18 12:35:00,86.1,72.5,29.73,WSW,257,7.0,7.0,64,0.00,,---,0.00,VWS V14.01,2013-05-18 17:35:00,
2013-05-18 12:40:00,86.6,72.0,29.73,SSE,155,1.0,1.0,62,0.00,,---,0.00,VWS V14.01,2013-05-18 17:40:00,
2013-05-18 12:45:00,86.3,71.3,29.73,SSW,210,0.0,1.0,61,0.00,,---,0.00,VWS V14.01,2013-05-18 17:45:00,
2013-05-18 12:50:00,86.0,71.9,29.73,South,180,0.0,0.0,63,0.00,,---,0.00,VWS V14.01,2013-05-18 17:50:00,
2013-05-18 12:55:00,85.6,71.6,29.72,SSW,207,0.0,5.0,63,0.00,,---,0.00,VWS V14.01,2013-05-18 17:55:00,
2013-05-18 13:00:00,85.7,71.7,29.72,South,173,0.0,4.0,63,0.00,,---,0.00,VWS V14.01,2013-05-18 18:00:00,
2013-05-18 13:05:00,86.1,71.6,29.72,SSE,165,9.0,13.0,62,0.00,,---,0.00,VWS V14.01,2013-05-18 18:05:00,
2013-05-18 13:10:00,86.4,71.4,29.72,SSW,196,4.0,4.0,61,0.00,,---,0.00,VWS V14.01,2013-05-18 18:10:00,
2013-05-18 13:15:00,86.9,72.8,29.71,South,180,0.0,3.0,63,0.00,,---,0.00,VWS V14.01,2013-05-18 18:15:00,
2013-05-18 13:20:00,87.6,72.5,29.71,SE,142,0.0,7.0,61,0.00,,---,0.00,VWS V14.01,2013-05-18 18:20:00,
2013-05-18 13:25:00,87.9,72.3,29.71,WSW,244,2.0,7.0,60,0.00,,---,0.00,VWS V14.01,2013-05-18 18:25:00,
2013-05-18 13:30:00,88.2,71.6,29.71,South,178,0.0,5.0,58,0.00,,---,0.00,VWS V14.01,2013-05-18 18:30:00,
2013-05-18 13:35:00,88.0,71.9,29.71,SSW,194,0.0,3.0,59,0.00,,---,0.00,VWS V14.01,2013-05-18 18:35:00,
2013-05-18 13:40:00,87.9,71.3,29.71,SSE,163,4.0,7.0,58,0.00,,---,0.00,VWS V14.01,2013-05-18 18:40:00,
2013-05-18 13:45:00,87.8,71.7,29.70,South,186,8.0,8.0,59,0.00,,---,0.00,VWS V14.01,2013-05-18 18:45:00,
2013-05-18 13:50:00,88.4,71.8,29.70,South,172,5.0,9.0,58,0.00,,---,0.00,VWS V14.01,2013-05-18 18:50:00,
2013-05-18 13:55:00,89.4,72.7,29.70,SSW,206,0.0,6.0,58,0.00,,---,0.00,VWS V14.01,2013-05-18 18:55:00,
2013-05-18 14:00:00,90.1,71.2,29.70,South,173,0.0,1.0,54,0.00,,---,0.00,VWS V14.01,2013-05-18 19:00:00,
2013-05-18 14:05:00,90.6,73.8,29.70,SSE,162,0.0,0.0,58,0.00,,---,0.00,VWS V14.01,2013-05-18 19:05:00,
2013-05-18 14:10:00,91.0,72.1,29.70,SSW,198,4.0,6.0,54,0.00,,---,0.00,VWS V14.01,2013-05-18 19:10:00,
2013-05-18 14:15:00,90.9,73.0,29.70,SW,214,1.0,3.0,56,0.00,,---,0.00,VWS V14.01,2013-05-18 19:15:00,
2013-05-18 14:20:00,91.0,71.5,29.70,South,190,0.0,4.0,53,0.00,,---,0.00,VWS V14.01,2013-05-18 19:20:00,
2013-05-18 14:25:00,91.3,73.9,29.70,South,188,6.0,14.0,57,0.00,,---,0.00,VWS V14.01,2013-05-18 19:25:00,
2013-05-18 14:30:00,91.9,73.4,29.69,SE,124,0.0,6.0,55,0.00,,---,0.00,VWS V14.01,2013-05-18 19:30:00,
2013-05-18 14:35:00,92.5,74.0,29.69,South,187,0.0,0.0,55,0.00,,---,0.00,VWS V14.01,2013-05-18 19:35:00,
2013-05-18 14:40:00,92.4,72.2,29.69,SW,232,3.0,7.0,52,0.00,,---,0.00,VWS V14.01,2013-05-18 19:40:00,
2013-05-18 14:45:00,91.9,72.3,29.69,SSE,162,3.0,3.0,53,0.00,,---,0.00,VWS V14.01,2013-05-18 19:45:00,
2013-05-18 14:50:00,91.8,72.2,29.69,SE,146,0.0,7.0,53,0.00,,---,0.00,VWS V14.01,2013-05-18 19:50:00,
2013-05-18 14:55:00,92.1,73.1,29.69,South,170,0.0,4.0,54,0.00,,---,0.00,VWS V14.01,2013-05-18 19:55:00,
2013-05-18 15:00:00,92.4,73.9,29.68,SSE,165,2.0,6.0,55,0.00,,---,0.00,VWS V14.01,2013-05-18 20:00:00,
2013-05-18 15:05:00,92.7,73.6,29.68,South,169,0.0,3.0,54,0.00,,---,0.00,VWS V14.01,2013-05-18 20:05:00,
2013-05-18 15:10:00,92.7,73.1,29.68,South,190,2.0,4.0,53,0.00,,---,0.00,VWS V14.01,2013-05-18 20:10:00,
2013-05-18 15:15:00,92.2,72.6,29.68,SSW,207,5.0,6.0,53,0.00,,---,0.00,VWS V14.01,2013-05-18 20:15:00,
2013-05-18 15:20:00,91.7,73.2,29.68,South,188,1.0,15.0,55,0.00,,---,0.00,VWS V14.01,2013-05-18 20:20:00,
2013-05-18 15:25:00,91.9,72.9,29.68,SSE,167,0.0,6.0,54,0.00,,---,0.00,VWS V14.01,2013-05-18 20:25:00,
2013-05-18 15:30:00,91.6,72.6,29.68,South,188,1.0,4.0,54,0.00,,---,0.00,VWS V14.01,2013-05-18 20:30:00,
2013-05-18 15:35:00,91.2,71.7,29.67,SSW,202,10.0,10.0,53,0.00,,---,0.00,VWS V14.01,2013-05-18 20:35:00,
2013-05-18 15:40:00,91.4,73.0,29.67,SW,232,3.0,5.0,55,0.00,,---,0.00,VWS V14.01,2013-05-18 20:40:00,
2013-05-18 15:45:00,91.7,72.7,29.67,SSW,212,6.0,6.0,54,0.00,,---,0.00,VWS V14.01,2013-05-18 20:45:00,
2013-05-18 15:50:00,92.3,72.7,29.67,South,173,0.0,1.0,53,0.00,,---,0.00,VWS V14.01,2013-05-18 20:50:00,
2013-05-18 15:55:00,92.0,71.9,29.67,SSE,166,2.0,16.0,52,0.00,,---,0.00,VWS V14.01,2013-05-18 20:55:00,
2013-05-18 16:00:00,91.5,72.0,29.67,SW,229,3.0,11.0,53,0.00,,---,0.00,VWS V14.01,2013-05-18 21:00:00,
2013-05-18 16:05:00,91.1,71.6,29.67,South,171,0.0,0.0,53,0.00,,---,0.00,VWS V14.01,2013-05-18 21:05:00,
2013-05-18 16:10:00,91.1,72.7,29.67,NW,325,9.0,9.0,55,0.00,,---,0.00,VWS V14.01,2013-05-18 21:10:00,
2013-05-18 16:15:00,91.3,72.3,29.66,SSE,166,2.0,2.0,54,0.00,,---,0.00,VWS V14.01,2013-05-18 21:15:00,
2013-05-18 16:20:00,91.3,72.3,29.66,SW,224,1.0,4.0,54,0.00,,---,0.00,VWS V14.01,2013-05-18 21:20:00,
2013-05-18 16:25:00,91.7,72.2,29.66,SSE,158,3.0,4.0,53,0.00,,---,0.00,VWS V14.01,2013-05-18 21:25:00,
2013-05-18 16:30:00,92.2,72.6,29.66,South,188,2.0,9.0,53,0.00,,---,0.00,VWS V14.01,2013-05-18 21:30:00,
2013-05-18 16:35:00,92.3,71.0,29.66,SSE,167,6.0,6.0,50,0.00,,---,0.00,VWS V14.01,2013-05-18 21:35:00,
2013-05-18 16:40:00,92.1,71.4,29.66,South,185,0.0,5.0,51,0.00,,---,0.00,VWS V14.01,2013-05-18 21:40:00,
2013-05-18 16:45:00,92.1,72.0,29.66,South,183,3.0,3.0,52,0.00,,---,0.00,VWS V14.01,2013-05-18 21:45:00,
2013-05-18 16:50:00,92.3,72.7,29.66,SE,138,0.0,0.0,53,0.00,,---,0.00,VWS V14.01,2013-05-18 21:50:00,
2013-05-18 16:55:00,92.7,73.1,29.66,SSE,163,1.0,3.0,53,0.00,,---,0.00,VWS V14.01,2013-05-18 21:55:00,
2013-05-18 17:00:00,92.7,71.3,29.66,SSW,195,2.0,7.0,50,0.00,,---,0.00,VWS V14.01,2013-05-18 22:00:00,
2013-05-18 17:05:00,92.6,72.4,29.66,SSE,162,0.0,6.0,52,0.00,,---,0.00,VWS V14.01,2013-05-18 22:05:00,
2013-05-18 17:10:00,92.9,72.7,29.65,South,189,0.0,6.0,52,0.00,,---,0.00,VWS V14.01,2013-05-18 22:10:00,
2013-05-18 17:15:00,93.0,72.8,29.65,SSE,160,2.0,5.0,52,0.00,,---,0.00,VWS V14.01,2013-05-18 22:15:00,
2013-05-18 17:20:00,92.7,73.6,29.65,South,184,3.0,9.0,54,0.00,,---,0.00,VWS V14.01,2013-05-18 22:20:00,
2013-05-18 17:25:00,92.4,73.3,29.65,SE,133,0.0,5.0,54,0.00,,---,0.00,VWS V14.01,2013-05-18 22:25:00,
2013-05-18 17:30:00,91.9,72.9,29.65,West,281,0.0,0.0,54,0.00,,---,0.00,VWS V14.01,2013-05-18 22:30:00,
2013-05-18 17:35:00,91.5,73.1,29.65,SSE,159,3.0,4.0,55,0.00,,---,0.00,VWS V14.01,2013-05-18 22:35:00,
2013-05-18 17:40:00,91.1,72.7,29.65,South,190,0.0,2.0,55,0.00,,---,0.00,VWS V14.01,2013-05-18 22:40:00,
2013-05-18 17:45:00,90.9,73.0,29.65,SSW,200,4.0,4.0,56,0.00,,---,0.00,VWS V14.01,2013-05-18 22:45:00,
2013-05-18 17:50:00,90.6,72.2,29.65,South,185,4.0,4.0,55,0.00,,---,0.00,VWS V14.01,2013-05-18 22:50:00,
2013-05-18 17:55:00,90.1,72.3,29.65,SSW,200,1.0,3.0,56,0.00,,---,0.00,VWS V14.01,2013-05-18 22:55:00,
2013-05-18 18:00:00,90.0,72.7,29.65,SSE,167,0.0,2.0,57,0.00,,---,0.00,VWS V14.01,2013-05-18 23:00:00,
2013-05-18 18:05:00,90.4,73.1,29.65,South,175,0.0,0.0,57,0.00,,---,0.00,VWS V14.01,2013-05-18 23:05:00,
2013-05-18 18:10:00,90.1,72.3,29.65,WSW,241,0.0,0.0,56,0.00,,---,0.00,VWS V14.01,2013-05-18 23:10:00,
2013-05-18 18:15:00,89.8,72.0,29.65,South,181,0.0,5.0,56,0.00,,---,0.00,VWS V14.01,2013-05-18 23:15:00,
2013-05-18 18:20:00,89.5,72.3,29.65,South,169,5.0,5.0,57,0.00,,---,0.00,VWS V14.01,2013-05-18 23:20:00,
2013-05-18 18:25:00,89.2,72.0,29.64,South,173,0.0,0.0,57,0.00,,---,0.00,VWS V14.01,2013-05-18 23:25:00,
2013-05-18 18:30:00,89.1,71.9,29.64,South,181,0.0,0.0,57,0.00,,---,0.00,VWS V14.01,2013-05-18 23:30:00,
2013-05-18 18:35:00,89.0,72.3,29.64,West,261,0.0,0.0,58,0.00,,---,0.00,VWS V14.01,2013-05-18 23:35:00,
2013-05-18 18:40:00,88.8,71.6,29.63,SW,221,4.0,6.0,57,0.00,,---,0.00,VWS V14.01,2013-05-18 23:40:00,
2013-05-18 18:45:00,88.7,72.0,29.63,South,175,0.0,3.0,58,0.00,,---,0.00,VWS V14.01,2013-05-18 23:45:00,
2013-05-18 18:50:00,88.7,72.0,29.63,WSW,244,0.0,0.0,58,0.00,,---,0.00,VWS V14.01,2013-05-18 23:50:00,
2013-05-18 18:55:00,88.3,72.2,29.63,SE,140,0.0,7.0,59,0.00,,---,0.00,VWS V14.01,2013-05-18 23:55:00,
2013-05-18 19:00:00,88.0,72.4,29.63,SW,216,0.0,3.0,60,0.00,,---,0.00,VWS V14.01,2013-05-19 00:00:00,
2013-05-18 19:05:00,87.7,72.1,29.62,South,188,6.0,6.0,60,0.00,,---,0.00,VWS V14.01,2013-05-19 00:05:00,
2013-05-18 19:10:00,87.6,72.5,29.62,WSW,238,4.0,4.0,61,0.00,,---,0.00,VWS V14.01,2013-05-19 00:10:00,
2013-05-18 19:15:00,87.5,72.4,29.62,SSW,192,0.0,6.0,61,0.00,,---,0.00,VWS V14.01,2013-05-19 00:15:00,
2013-05-18 19:20:00,87.3,72.2,29.62,SSE,155,0.0,0.0,61,0.00,,---,0.00,VWS V14.01,2013-05-19 00:20:00,
2013-05-18 19:25:00,87.2,72.1,29.62,SSE,159,5.0,5.0,61,0.00,,---,0.00,VWS V14.01,2013-05-19 00:25:00,
2013-05-18 19:30:00,87.1,72.5,29.62,SSE,162,0.0,3.0,62,0.00,,---,0.00,VWS V14.01,2013-05-19 00:30:00,
2013-05-18 19:35:00,86.9,72.3,29.63,SSW,192,0.0,6.0,62,0.00,,---,0.00,VWS V14.01,2013-05-19 00:35:00,
2013-05-18 19:40:00,86.7,72.6,29.63,South,171,10.0,10.0,63,0.00,,---,0.00,VWS V14.01,2013-05-19 00:40:00,
2013-05-18 19:45:00,86.6,72.5,29.63,SE,143,3.0,3.0,63,0.00,,---,0.00,VWS V14.01,2013-05-19 00:45:00,
2013-05-18 19:50:00,86.4,72.3,29.63,South,184,0.0,11.0,63,0.00,,---,0.00,VWS V14.01,2013-05-19 00:50:00,
2013-05-18 19:55:00,86.3,72.7,29.63,SW,232,0.0,0.0,64,0.00,,---,0.00,VWS V14.01,2013-05-19 00:55:00,
2013-05-18 20:00:00,86.1,72.5,29.63,SSW,211,5.0,7.0,64,0.00,,---,0.00,VWS V14.01,2013-05-19 01:00:00,
2013-05-18 20:05:00,86.0,72.4,29.63,South,171,0.0,11.0,64,0.00,,---,0.00,VWS V14.01,2013-05-19 01:05:00,
2013-05-18 20:10:00,85.9,72.3,29.63,SSE,159,0.0,0.0,64,0.00,,---,0.00,VWS V14.01,2013-05-19 01:10:00,
2013-05-18 20:15:00,85.8,72.2,29.63,WSW,238,5.0,5.0,64,0.00,,---,0.00,VWS V14.01,2013-05-19 01:15:00,
2013-05-18 20:20:00,85.6,72.0,29.63,SSE,163,0.0,10.0,64,0.00,,---,0.00,VWS V14.01,2013-05-19 01:20:00,
2013-05-18 20:25:00,85.5,71.5,29.63,South,191,0.0,6.0,63,0.00,,---,0.00,VWS V14.01,2013-05-19 01:25:00,
2013-05-18 20:30:00,85.4,71.4,29.63,SW,223,0.0,15.0,63,0.00,,---,0.00,VWS V14.01,2013-05-19 01:30:00,
2013-05-18 20:35:00,85.2,71.2,29.63,NW,309,0.0,1.0,63,0.00,,---,0.00,VWS V14.01,2013-05-19 01:35:00,
2013-05-18 20:40:00,85.1,71.1,29.63,SE,133,0.0,5.0,63,0.00,,---,0.00,VWS V14.01,2013-05-19 01:40:00,
2013-05-18 20:45:00,85.0,70.5,29.63,SE,136,1.0,6.0,62,0.00,,---,0.00,VWS V14.01,2013-05-19 01:45:00,
2013-05-18 20:50:00,84.9,70.9,29.63,SE,128,6.0,6.0,63,0.00,,---,0.00,VWS V14.01,2013-05-19 01:50:00,
2013-05-18 20:55:00,84.8,70.8,29.62,SSE,162,0.0,5.0,63,0.00,,---,0.00,VWS V14.01,2013-05-19 01:55:00,
2013-05-18 21:00:00,84.7,70.2,29.63,South,169,6.0,6.0,62,0.00,,---,0.00,VWS V14.01,2013-05-19 02:00:00,
2013-05-18 21:05:00,84.6,70.2,29.63,SE,142,0.0,2.0,62,0.00,,---,0.00,VWS V14.01,2013-05-19 02:05:00,
2013-05-18 21:10:00,84.5,70.1,29.63,South,171,0.0,4.0,62,0.00,,---,0.00,VWS V14.01,2013-05-19 02:10:00,
2013-05-18 21:15:00,84.4,70.0,29.63,South,174,0.0,11.0,62,0.00,,---,0.00,VWS V14.01,2013-05-19 02:15:00,
2013-05-18 21:20:00,84.3,69.9,29.63,SSW,194,0.0,0.0,62,0.00,,---,0.00,VWS V14.01,2013-05-19 02:20:00,
2013-05-18 21:25:00,84.1,69.7,29.63,SSE,159,0.0,0.0,62,0.00,,---,0.00,VWS V14.01,2013-05-19 02:25:00,
2013-05-18 21:30:00,84.0,69.6,29.63,South,178,0.0,0.0,62,0.00,,---,0.00,VWS V14.01,2013-05-19 02:30:00,
2013-05-18 21:35:00,83.9,69.5,29.63,SE,132,0.0,3.0,62,0.00,,---,0.00,VWS V14.01,2013-05-19 02:35:00,
2013-05-18 21:40:00,83.8,69.4,29.63,SSE,158,0.0,11.0,62,0.00,,---,0.00,VWS V14.01,2013-05-19 02:40:00,
2013-05-18 21:45:00,83.6,69.2,29.64,SE,143,1.0,2.0,62,0.00,,---,0.00,VWS V14.01,2013-05-19 02:45:00,
2013-05-18 21:50:00,83.5,69.1,29.64,South,184,3.0,3.0,62,0.00,,---,0.00,VWS V14.01,2013-05-19 02:50:00,
2013-05-18 21:55:00,83.4,69.0,29.64,SSW,198,4.0,9.0,62,0.00,,---,0.00,VWS V14.01,2013-05-19 02:55:00,
2013-05-18 22:00:00,83.3,68.5,29.63,SSE,154,1.0,18.0,61,0.00,,---,0.00,VWS V14.01,2013-05-19 03:00:00,
2013-05-18 22:05:00,83.2,68.8,29.64,SSE,168,5.0,12.0,62,0.00,,---,0.00,VWS V14.01,2013-05-19 03:05:00,
2013-05-18 22:10:00,83.2,68.4,29.64,ESE,118,0.0,10.0,61,0.00,,---,0.00,VWS V14.01,2013-05-19 03:10:00,
2013-05-18 22:15:00,83.0,68.7,29.65,South,186,2.0,3.0,62,0.00,,---,0.00,VWS V14.01,2013-05-19 03:15:00,
2013-05-18 22:20:00,82.9,68.6,29.64,NE,37,0.0,1.0,62,0.00,,---,0.00,VWS V14.01,2013-05-19 03:20:00,
2013-05-18 22:25:00,82.7,68.4,29.64,SW,234,0.0,3.0,62,0.00,,---,0.00,VWS V14.01,2013-05-19 03:25:00,
2013-05-18 22:30:00,82.6,68.3,29.65,South,176,0.0,0.0,62,0.00,,---,0.00,VWS V14.01,2013-05-19 03:30:00,
2013-05-18 22:35:00,82.4,68.6,29.65,SSE,155,2.0,3.0,63,0.00,,---,0.00,VWS V14.01,2013-05-19 03:35:00,
2013-05-18 22:40:00,82.2,68.4,29.65,SW,214,0.0,0.0,63,0.00,,---,0.00,VWS V14.01,2013-05-19 03:40:00,
2013-05-18 22:45:00,82.1,68.3,29.65,SSW,192,0.0,0.0,63,0.00,,---,0.00,VWS V14.01,2013-05-19 03:45:00,
2013-05-18 22:50:00,81.9,68.1,29.66,SSE,154,7.0,7.0,63,0.00,,---,0.00,VWS V14.01,2013-05-19 03:50:00,
2013-05-18 22:55:00,81.7,67.9,29.66,SSW,198,0.0,2.0,63,0.00,,---,0.00,VWS V14.01,2013-05-19 03:55:00,
2013-05-18 23:00:00,81.5,68.2,29.66,SSE,164,5.0,9.0,64,0.00,,---,0.00,VWS V14.01,2013-05-19 04:00:00,
2013-05-18 23:01:00,81.5,68.2,29.66,SW,217,1.0,9.0,64,0.00,,---,0.00,VWS V14.01,2013-05-19 04:01:00,
2013-05-18 23:06:00,81.3,68.0,29.67,SSE,152,5.0,11.0,64,0.00,,---,0.00,VWS V14.01,2013-05-19 04:06:00,
2013-05-18 23:11:00,81.1,67.8,29.67,South,174,10.0,10.0,64,0.00,,---,0.00,VWS V14.01,2013-05-19 04:11:00,
2013-05-18 23:16:00,80.9,68.0,29.67,SSE,157,5.0,6.0,65,0.00,,---,0.00,VWS V14.01,2013-05-19 04:16:00,
2013-05-18 23:21:00,80.8,67.9,29.67,South,182,9.0,9.0,65,0.00,,---,0.00,VWS V14.01,2013-05-19 04:21:00,
2013-05-18 23:26:00,80.7,67.8,29.67,South,181,3.0,3.0,65,0.00,,---,0.00,VWS V14.01,2013-05-19 04:26:00,
2013-05-18 23:31:00,80.6,67.8,29.67,SE,133,0.0,4.0,65,0.00,,---,0.00,VWS V14.01,2013-05-19 04:31:00,
2013-05-18 23:36:00,80.5,67.7,29.68,South,176,2.0,2.0,65,0.00,,---,0.00,VWS V14.01,2013-05-19 04:36:00,
2013-05-18 23:41:00,80.4,67.6,29.68,South,186,0.0,0.0,65,0.00,,---,0.00,VWS V14.01,2013-05-19 04:41:00,
2013-05-18 23:46:00,80.3,67.5,29.68,SSW,197,4.0,4.0,65,0.00,,---,0.00,VWS V14.01,2013-05-19 04:46:00,
2013-05-18 23:51:00,80.1,67.3,29.68,SE,146,0.0,0.0,65,0.00,,---,0.00,VWS V14.01,2013-05-19 04:51:00,
2013-05-18 23:56:00,80.0,67.6,29.68,South,174,0.0,0.0,66,0.00,,---,0.00,VWS V14.01,2013-05-19 04:56:00,